| time (UTC) | temp F | wind direction | speed knots | gust knots | rain 1hr in | rain 24hr in | rain mn in | humidity % | barometer mb |
| 20260508114730 | 48 | 244 | 10.4 | 13.9 | 0.00 | 0.00 | 0.00 | 66 | |
| 20260508112731 | 47 | 240 | 12.2 | 14.8 | 0.00 | 0.00 | 0.00 | 67 | |
| 20260508110731 | 49 | 232 | 11.3 | 13.9 | 0.00 | 0.00 | 0.00 | 64 | |
| 20260508104730 | 46 | 220 | 9.6 | 12.2 | 0.00 | 0.00 | 0.00 | 65 | |
| 20260508102729 | 48 | 214 | 10.4 | 13.0 | 0.00 | 0.00 | 0.00 | 62 | |
| 20260508100730 | 46 | 219 | 8.7 | 11.3 | 0.00 | 0.00 | 0.00 | 65 | |
| 20260508094730 | 48 | 208 | 9.6 | 11.3 | 0.00 | 0.00 | 0.00 | 57 | |
| 20260508092730 | 49 | 204 | 8.7 | 12.2 | 0.00 | 0.00 | 0.00 | 53 | |
| 20260508090730 | 48 | 201 | 7.8 | 10.4 | 0.00 | 0.00 | 0.00 | 56 | |
| 20260508084730 | 49 | 201 | 7.0 | 9.6 | 0.00 | 0.00 | 0.00 | 54 | |
| 20260508082729 | 48 | 189 | 6.1 | 7.8 | 0.00 | 0.00 | 0.00 | 53 | |
| 20260508080730 | 47 | 168 | 5.2 | 7.8 | 0.00 | 0.00 | 0.00 | 61 | |
| 20260508074730 | 50 | 41 | 6.1 | 9.6 | 0.00 | 0.00 | 0.00 | 48 | |
| 20260508072729 | 49 | 339 | 7.0 | 9.6 | 0.00 | 0.00 | 0.00 | 60 | |
| 20260508070730 | 47 | 305 | 3.5 | 5.2 | 0.00 | 0.00 | 0.00 | 63 | |
| 20260508064729 | 47 | 312 | 6.1 | 7.0 | 0.00 | 0.00 | 0.00 | 61 | |
| 20260508062729 | 45 | 308 | 6.1 | 7.0 | 0.00 | 0.00 | 0.00 | 62 | |
| 20260508054729 | 44 | 318 | 6.1 | 7.0 | 0.00 | 0.00 | 0.00 | 62 | |
| 20260508052730 | 45 | 328 | 7.0 | 7.8 | 0.00 | 0.00 | 0.00 | 60 | |
| 20260508050729 | 44 | 342 | 7.8 | 8.7 | 0.00 | 0.00 | 0.00 | 60 | |
| 20260508044730 | 46 | 5 | 7.0 | 8.7 | 0.00 | 0.00 | 0.00 | 56 | |
| 20260508042729 | 45 | 2 | 7.0 | 8.7 | 0.00 | 0.00 | 0.00 | 56 | |
| 20260508040729 | 44 | 9 | 9.6 | 11.3 | 0.00 | 0.00 | 0.00 | 58 | |
| 20260508034729 | 44 | 8 | 9.6 | 11.3 | 0.00 | 0.00 | 0.00 | 60 | |
| 20260508032729 | 43 | 10 | 8.7 | 11.3 | 0.00 | 0.00 | 0.00 | 61 | |
| 20260508030729 | 42 | 7 | 8.7 | 10.4 | 0.00 | 0.00 | 0.00 | 63 | |
| 20260508024728 | 41 | 3 | 9.6 | 11.3 | 0.00 | 0.00 | 0.00 | 62 | |
| 20260508022728 | 39 | 2 | 8.7 | 11.3 | 0.00 | 0.00 | 0.00 | 69 | |
| 20260508020729 | 39 | 13 | 9.6 | 12.2 | 0.00 | 0.00 | 0.00 | 68 | |
| 20260508014728 | 40 | 6 | 10.4 | 13.0 | 0.00 | 0.00 | 0.00 | 66 | |
| 20260508012728 | 40 | 4 | 9.6 | 13.9 | 0.00 | 0.00 | 0.00 | 68 | |
| 20260508010728 | 41 | 359 | 10.4 | 14.8 | 0.00 | 0.00 | 0.00 | 65 | |
| 20260508004728 | 42 | 355 | 12.2 | 15.6 | 0.00 | 0.00 | 0.00 | 63 | |
| 20260508002728 | 42 | 354 | 12.2 | 14.8 | 0.00 | 0.00 | 0.00 | 64 | |
| 20260508000729 | 43 | 346 | 14.8 | 17.4 | 0.00 | 0.00 | 0.00 | 63 | |
| 20260507234729 | 43 | 347 | 14.8 | 18.2 | 0.00 | 0.00 | 0.00 | 63 | |
| 20260507232728 | 44 | 352 | 14.8 | 17.4 | 0.00 | 0.00 | 0.00 | 57 | |
| 20260507230728 | 44 | 349 | 14.8 | 17.4 | 0.00 | 0.00 | 0.00 | 60 | |
| 20260507224727 | 43 | 347 | 13.0 | 15.6 | 0.00 | 0.00 | 0.00 | 64 | |
| 20260507222728 | 44 | 346 | 13.0 | 15.6 | 0.00 | 0.00 | 0.00 | 60 | |
| 20260507220728 | 44 | 342 | 13.9 | 14.8 | 0.00 | 0.00 | 0.00 | 64 | |
| 20260507214728 | 44 | 336 | 14.8 | 15.6 | 0.00 | 0.00 | 0.00 | 62 | |
| 20260507210727 | 44 | 338 | 14.8 | 16.5 | 0.00 | 0.00 | 0.00 | 65 | |
| 20260507204728 | 44 | 338 | 14.8 | 16.5 | 0.00 | 0.00 | 0.00 | 68 | |
| 20260507202727 | 44 | 340 | 16.5 | 19.1 | 0.00 | 0.00 | 0.00 | 62 | |
| 20260507200728 | 42 | 317 | 10.4 | 13.0 | 0.00 | 0.00 | 0.00 | 84 | |
| 20260507194727 | 43 | 280 | 7.8 | 7.8 | 0.00 | 0.00 | 0.00 | 78 | |
| 20260507192727 | 44 | 260 | 8.7 | 9.6 | 0.00 | 0.00 | 0.00 | 70 | |
| 20260507190727 | 45 | 231 | 8.7 | 10.4 | 0.00 | 0.00 | 0.00 | 57 | |
| 20260507184727 | 45 | 240 | 11.3 | 13.0 | 0.00 | 0.00 | 0.00 | 61 | |
| 20260507182726 | 45 | 244 | 10.4 | 13.0 | 0.00 | 0.00 | 0.00 | 67 | |
| 20260507180726 | 45 | 246 | 12.2 | 14.8 | 0.00 | 0.00 | 0.00 | 68 | |
| 20260507174727 | 45 | 250 | 12.2 | 13.0 | 0.00 | 0.00 | 0.00 | 70 | |
| 20260507172726 | 46 | 247 | 9.6 | 13.0 | 0.00 | 0.00 | 0.00 | 66 | |
| 20260507170726 | 47 | 247 | 10.4 | 13.0 | 0.00 | 0.00 | 0.00 | 61 | |
| 20260507164727 | 47 | 250 | 12.2 | 13.9 | 0.00 | 0.00 | 0.00 | 61 | |
| 20260507162727 | 47 | 253 | 10.4 | 12.2 | 0.00 | 0.00 | 0.00 | 59 | |
| 20260507160727 | 48 | 249 | 8.7 | 11.3 | 0.00 | 0.00 | 0.00 | 61 | |
| 20260507154726 | 48 | 233 | 7.0 | 8.7 | 0.00 | 0.00 | 0.00 | 61 | |
| 20260507152726 | 47 | 226 | 7.0 | 8.7 | 0.00 | 0.00 | 0.00 | 65 | |
| 20260507150727 | 48 | 228 | 7.0 | 8.7 | 0.00 | 0.00 | 0.00 | 60 | |
| 20260507142727 | 48 | 243 | 7.8 | 9.6 | 0.00 | 0.00 | 0.00 | 57 | |
| 20260507140726 | 49 | 244 | 5.2 | 7.8 | 0.00 | 0.00 | 0.00 | 47 | |
| 20260507134726 | 51 | 225 | 4.3 | 6.1 | 0.00 | 0.00 | 0.00 | 35 | |
| 20260507132726 | 51 | 231 | 4.3 | 6.1 | 0.00 | 0.00 | 0.00 | 39 | |
| 20260507130726 | 49 | 252 | 5.2 | 6.1 | 0.00 | 0.00 | 0.00 | 41 | |
| 20260507124726 | 52 | 235 | 3.5 | 6.1 | 0.00 | 0.00 | 0.00 | 41 | |
| 20260507122725 | 52 | 166 | 2.6 | 4.3 | 0.00 | 0.00 | 0.00 | 34 | |
| 20260507120726 | 48 | 160 | 3.5 | 5.2 | 0.00 | 0.00 | 0.00 | 62 |